Flag for Colombia Weather past 2 weeks in Santa Marta, Colombia

Now
91 °F

Passing clouds.


Feels Like: 100 °F
Forecast: N/A
Wind: 12 mph from Northeast

Location: Santa Marta / Simon Bolivar

Current Time: May 6, 2015 at 6:43:47 PM

Latest Report: May 6, 2015 at 6:00 PM


Visibility: 6 mi

Pressure: 29.74 "Hg

Humidity: 56%

Dew point: 73 °F

Location of Santa MartaLocation

Historic Weather in Santa Marta — Graph

°F

Santa Marta temperature yesterday

Maximum temperature yesterday: 95 °F (at 4:00 PM)
Minimum temperature yesterday: 81 °F (at 6:00 AM)
Average temperature yesterday: 88 °F

Past Weeks' High & Low Weather Summary

 TemperatureHumidityPressure
High97 °F (Apr 23, 3:00 PM)100% (May 2, 6:00 AM)29.95 "Hg (May 2, 6:00 AM)
Low75 °F (May 2, 6:00 AM)44% (Apr 23, 3:00 PM)29.67 "Hg (Apr 28, 4:00 PM)
Average87 °F72%29.80 "Hg
* Reported Apr 21 5:00 PM — May 6 5:00 PM, Santa Marta, Weather by CustomWeather, © 2015

Note: Actual official high and low records may vary slightly from our data, if they occured in-between our weather recording intervals... More about our weather records

Advertising

Santa Marta weather history for previous 24 hours

 ConditionsComfort  
Time TempWeatherWind HumidityBarometerVisibility
5:00 PM
Wed, May 6
95 °FPassing clouds.14 mph50%29.74 "Hg6 mi
4:00 PM97 °FPassing clouds.9 mph47%29.74 "Hg6 mi
3:00 PM93 °FPassing clouds.7 mph59%29.74 "Hg6 mi
2:00 PM93 °FPassing clouds.12 mph59%29.77 "Hg6 mi
1:00 PM90 °FPassing clouds.No wind67%29.80 "Hg6 mi
12:00 PM90 °FScattered clouds.7 mph63%29.84 "Hg4 mi
11:00 AM88 °FPassing clouds.5 mph70%29.86 "Hg4 mi
10:00 AM86 °FPassing clouds.5 mph79%29.87 "Hg4 mi
9:00 AM86 °FWarm.5 mph79%29.87 "Hg4 mi
8:00 AM84 °FPassing clouds.5 mph74%29.85 "Hg5 mi
7:00 AM81 °FPassing clouds.No wind79%29.82 "Hg5 mi
6:00 AM79 °FScattered clouds.No wind79%29.81 "Hg5 mi
10:00 PM
Tue, May 5
86 °FPassing clouds.5 mph66%29.81 "HgN/A
9:00 PM86 °FPassing clouds.5 mph66%29.80 "HgN/A
8:00 PM88 °FPassing clouds.12 mph62%29.78 "HgN/A
7:00 PM88 °FPassing clouds.16 mph62%29.77 "HgN/A
6:00 PM90 °FScattered clouds.14 mph59%29.77 "HgN/A
Weather by CustomWeather, © 2015

See weather overviewHow to use our weather pages